Greybull, WY

4:11 AM MST on December 14, 2019 (GMT -0700)
South Big Horn County

Weather History for KGEY - October, 2019

Change the Weather History Date:

Thursday, October 10, 2019

  Actual Average Record
Temperature  
Mean Temperature 26 °F 48 °F  
Max Temperature 31 °F 62 °F 86 °F (2015)
Min Temperature 20 °F 34 °F 18 °F (2009)
Degree Days  
Heating Degree Days 39 17  
Month to date heating degree days 230 150  
Since 1 July heating degree days 405 381  
Cooling Degree Days 0 0  
Month to date cooling degree days 0 0  
Year to date cooling degree days 733 669  
Moisture  
Dew Point 15 °F    
Average Humidity 67    
Maximum Humidity 84    
Minimum Humidity 49    
Precipitation  
Precipitation 0.00 in 0.02 in 0.11 in (2003)
Month to date precipitation 0.26 0.25  
Year to date precipitation 7.58 6.58  
Sea Level Pressure  
Sea Level Pressure 30.45 in    
Wind  
Wind Speed 13 mph (NW)    
Max Wind Speed 23 mph    
Max Gust Speed 29 mph    
Visibility 10 miles    
Events      
T = Trace of Precipitation, MM = Missing Value Source: NWS Daily Summary

Daily Weather History Graph

Daily Weather History Graph

Search for Another Location

Airport or City:

Astronomy

Oct. 10, 2019 Rise Set
Actual Time 7:21 AM MDT 6:36 PM MDT
Civil Twilight 6:51 AM MDT 7:06 PM MDT
Nautical Twilight 6:18 AM MDT 7:39 PM MDT
Astronomical Twilight 5:44 AM MDT 8:13 PM MDT
Moon 5:49 PM MDT (10/10) 3:56 AM MDT (10/10)
Length of Visible Light 12h 14m
Length of Day
11h 15m
Waxing Gibbous, 91% of the Moon is Illuminated
Oct 10
Waxing Gibbous
Oct 13
Full
Oct 21
Last Quarter
Oct 27
New
Nov 4
First Quarter

Hourly Weather History & Observations

Time (MDT) Temp. Windchill Dew Point Humidity Pressure Visibility Wind Dir Wind Speed Gust Speed Precip Events Conditions
12:53 AM 24.1 °F 10.1 °F 15.1 °F 69% 30.36 in 10.0 mi NNW 18.4 mph - N/A   Overcast
1:53 AM 24.1 °F 9.0 °F 15.1 °F 69% 30.38 in 10.0 mi NNW 21.9 mph 27.6 mph N/A   Overcast
2:53 AM 23.0 °F 9.6 °F 15.1 °F 72% 30.40 in 10.0 mi NW 16.1 mph - N/A   Overcast
3:53 AM 23.0 °F 8.7 °F 14.0 °F 68% 30.40 in 10.0 mi NNW 18.4 mph 25.3 mph N/A   Overcast
4:53 AM 23.0 °F 9.2 °F 14.0 °F 68% 30.42 in 10.0 mi NW 17.3 mph 25.3 mph N/A   Overcast
5:53 AM 21.9 °F 7.8 °F 14.0 °F 72% 30.44 in 10.0 mi NW 17.3 mph 25.3 mph N/A   Overcast
6:53 AM 21.9 °F 8.7 °F 12.9 °F 68% 30.46 in 10.0 mi NNW 15.0 mph - N/A   Overcast
7:53 AM 21.0 °F 8.6 °F 12.9 °F 71% 30.47 in 10.0 mi NW 12.7 mph - N/A   Mostly Cloudy
8:53 AM 21.9 °F 8.7 °F 12.9 °F 68% 30.49 in 10.0 mi NW 15.0 mph - N/A   Clear
9:53 AM 26.1 °F 12.7 °F 12.9 °F 58% 30.48 in 10.0 mi NNW 18.4 mph 27.6 mph N/A   Scattered Clouds
10:53 AM 26.1 °F 12.7 °F 14.0 °F 60% 30.48 in 10.0 mi NW 18.4 mph - N/A   Overcast
11:53 AM 28.0 °F 15.3 °F 15.1 °F 58% 30.47 in 10.0 mi NW 18.4 mph - N/A   Clear
12:53 PM 28.0 °F 15.3 °F 15.1 °F 58% 30.47 in 10.0 mi NW 18.4 mph - N/A   Partly Cloudy
1:53 PM 30.0 °F 19.1 °F 14.0 °F 51% 30.44 in 10.0 mi NNW 15.0 mph 26.5 mph N/A   Mostly Cloudy
2:53 PM 30.9 °F 20.2 °F 17.1 °F 57% 30.44 in 10.0 mi NNW 15.0 mph 20.7 mph N/A   Overcast
3:53 PM 30.0 °F 21.7 °F 15.1 °F 54% 30.43 in 10.0 mi NNW 9.2 mph - N/A   Overcast
4:53 PM 30.9 °F 20.7 °F 15.1 °F 52% 30.43 in 10.0 mi NNW 13.8 mph - N/A   Mostly Cloudy
5:53 PM 30.0 °F 21.1 °F 15.1 °F 54% 30.45 in 10.0 mi NW 10.4 mph - N/A   Clear
6:53 PM 28.0 °F 18.6 °F 15.1 °F 58% 30.46 in 10.0 mi NW 10.4 mph - N/A   Clear
7:53 PM 25.0 °F 16.3 °F 16.0 °F 69% 30.47 in 10.0 mi WNW 8.1 mph - N/A   Clear
8:53 PM 24.1 °F 18.2 °F 16.0 °F 71% 30.48 in 10.0 mi WNW 4.6 mph - N/A   Clear
9:53 PM 23.0 °F 17.0 °F 16.0 °F 74% 30.48 in 10.0 mi North 4.6 mph - N/A   Clear
10:53 PM 21.9 °F - 16.0 °F 78% 30.49 in 10.0 mi Calm Calm - N/A   Clear
11:53 PM 19.9 °F - 15.1 °F 81% 30.49 in 10.0 mi Calm Calm - N/A   Clear